User: anonymous   Login
Location: Darlington Observatory
(36.4817°N, 105.8156°W)
Time: 23:37:45
(UTC-07:00)
Language:

MOS 1 - Orbit

View from above orbital plane
View from above orbital plane
View from above satellite
View from above satellite

Ground track
Ground track

The orbit data is extracted from the following two-line orbital elements,

1 17527U 87018A   18053.51220334 +.00000322 +00000-0 +23917-3 0  9995
2 17527 099.2545 076.8747 0008027 325.0937 153.9805 14.02501711584339
Epoch (UTC): 22 February 2018 12:17:34
Eccentricity: 0.0008027
inclination: 99.2545°
perigee height: 879 km
apogee height: 891 km
right ascension of ascending node: 76.8747°
argument of perigee: 325.0937°
revolutions per day: 14.02501711
mean anomaly at epoch: 153.9805°
orbit number at epoch: 58433

The dashed part of the orbit path shows where the satellite is in the earth's shadow,  

DLR